• In Hungary
  • List of Countries
  • For 7 days
  • Water Temperature
  • Satellite Maps
  • Weather Map
  • News
  • Weather Widgets
  • user-avatar
    Login

    Hourly Weather Wysoka

    Today, 19 August, Sunday

    Time Temperature Precipitation Wind Pressure Humidity
    00:00 +22°C° 0.1 mm 1 mps 741 mmHg 69%
    01:00 +19°C° 0.1 mm 0 mps 742 mmHg 71%
    02:00 +19°C° 0 mm 0 mps 742 mmHg 72%
    03:00 +21°C° 0 mm 1 mps 741 mmHg 73%
    04:00 +21°C° 0 mm 1 mps 741 mmHg 74%
    05:00 +22°C° 0 mm 1 mps 742 mmHg 71%
    06:00 +23°C° 0 mm 1 mps 742 mmHg 68%
    07:00 +24°C° 0 mm 1 mps 742 mmHg 65%
    08:00 +25°C° 0 mm 1 mps 742 mmHg 60%
    09:00 +27°C° 0 mm 1 mps 742 mmHg 54%
    10:00 +29°C° 0 mm 1 mps 742 mmHg 49%
    11:00 +30°C° 0 mm 1 mps 742 mmHg 46%
    12:00 +30°C° 0 mm 1 mps 742 mmHg 43%
    13:00 +31°C° 0 mm 1 mps 742 mmHg 41%
    14:00 +31°C° 0 mm 1 mps 741 mmHg 42%
    15:00 +30°C° 0 mm 1 mps 741 mmHg 43%
    16:00 +30°C° 0 mm 1 mps 741 mmHg 44%
    17:00 +28°C° 0 mm 1 mps 741 mmHg 48%
    18:00 +27°C° 0 mm 1 mps 740 mmHg 52%
    19:00 +26°C° 0 mm 1 mps 740 mmHg 55%
    20:00 +25°C° 0 mm 1 mps 740 mmHg 57%
    21:00 +25°C° 0 mm 1 mps 740 mmHg 59%
    22:00 +24°C° 0 mm 1 mps 740 mmHg 60%
    23:00 +24°C° 0 mm 1 mps 740 mmHg 62%

    Tomorrow, 20 August, Monday

    Time Temperature Precipitation Wind Pressure Humidity
    00:00 +23°C° 0 mm 1 mps 740 mmHg 63%
    01:00 +23°C° 0 mm 1 mps 740 mmHg 65%
    02:00 +22°C° 0 mm 1 mps 739 mmHg 65%
    03:00 +22°C° 0 mm 1 mps 739 mmHg 66%
    04:00 +21°C° 0 mm 2 mps 739 mmHg 67%
    05:00 +23°C° 0.2 mm 2 mps 739 mmHg 66%
    06:00 +23°C° 0.2 mm 2 mps 739 mmHg 65%
    07:00 +24°C° 0.2 mm 2 mps 739 mmHg 65%
    08:00 +25°C° 0.2 mm 2 mps 739 mmHg 60%
    09:00 +27°C° 0.2 mm 2 mps 739 mmHg 56%
    10:00 +28°C° 0.2 mm 2 mps 739 mmHg 52%
    11:00 +29°C° 0 mm 3 mps 739 mmHg 48%
    12:00 +30°C° 0 mm 3 mps 739 mmHg 45%
    13:00 +31°C° 0 mm 3 mps 738 mmHg 42%
    14:00 +31°C° 0 mm 3 mps 738 mmHg 43%
    15:00 +30°C° 0 mm 4 mps 738 mmHg 43%
    16:00 +30°C° 0 mm 4 mps 738 mmHg 44%
    17:00 +29°C° 0 mm 3 mps 738 mmHg 48%
    18:00 +27°C° 0 mm 3 mps 738 mmHg 52%
    19:00 +26°C° 0 mm 3 mps 738 mmHg 56%
    20:00 +25°C° 0 mm 3 mps 738 mmHg 59%
    21:00 +24°C° 0 mm 3 mps 739 mmHg 61%
    22:00 +22°C° 0 mm 3 mps 739 mmHg 64%
    23:00 +21°C° 0 mm 3 mps 739 mmHg 68%

    Day after tomorrow, 21 August, Tuesday

    Time Temperature Precipitation Wind Pressure Humidity
    00:00 +20°C° 0 mm 3 mps 739 mmHg 73%
    01:00 +20°C° 0 mm 3 mps 740 mmHg 77%
    02:00 +19°C° 0 mm 3 mps 740 mmHg 80%
    03:00 +18°C° 0 mm 2 mps 740 mmHg 82%
    04:00 +17°C° 0 mm 2 mps 741 mmHg 85%
    05:00 +18°C° 0 mm 2 mps 741 mmHg 78%
    06:00 +18°C° 0 mm 3 mps 741 mmHg 72%
    07:00 +18°C° 0 mm 3 mps 742 mmHg 65%
    08:00 +19°C° 0 mm 3 mps 742 mmHg 59%
    09:00 +20°C° 0 mm 4 mps 742 mmHg 53%
    10:00 +21°C° 0 mm 4 mps 742 mmHg 47%
    11:00 +22°C° 0 mm 4 mps 742 mmHg 44%
    12:00 +23°C° 0 mm 4 mps 742 mmHg 40%
    13:00 +25°C° 0 mm 4 mps 742 mmHg 37%
    14:00 +25°C° 0 mm 4 mps 742 mmHg 36%
    15:00 +25°C° 0 mm 4 mps 742 mmHg 36%
    16:00 +25°C° 0 mm 3 mps 742 mmHg 36%
    17:00 +22°C° 0 mm 3 mps 742 mmHg 41%
    18:00 +21°C° 0 mm 2 mps 742 mmHg 45%
    19:00 +19°C° 0 mm 2 mps 742 mmHg 50%
    20:00 +20°C° 0 mm 1 mps 742 mmHg 52%
    21:00 +19°C° 0 mm 1 mps 743 mmHg 54%
    22:00 +18°C° 0 mm 1 mps 743 mmHg 56%
    23:00 +18°C° 0 mm 1 mps 743 mmHg 58%

    22 August, Wednesday

    Time Temperature Precipitation Wind Pressure Humidity
    00:00 +16°C° 0 mm 1 mps 743 mmHg 60%
    01:00 +16°C° 0 mm 1 mps 743 mmHg 62%
    02:00 +16°C° 0 mm 1 mps 743 mmHg 63%
    03:00 +15°C° 0 mm 1 mps 743 mmHg 65%
    04:00 +15°C° 0 mm 1 mps 743 mmHg 67%
    05:00 +16°C° 0 mm 1 mps 743 mmHg 64%
    06:00 +18°C° 0 mm 1 mps 743 mmHg 62%
    07:00 +18°C° 0 mm 2 mps 743 mmHg 60%
    08:00 +20°C° 0 mm 2 mps 743 mmHg 54%
    09:00 +23°C° 0 mm 2 mps 743 mmHg 48%
    10:00 +24°C° 0 mm 3 mps 743 mmHg 43%
    11:00 +25°C° 0 mm 3 mps 743 mmHg 40%
    12:00 +26°C° 0 mm 3 mps 742 mmHg 37%
    13:00 +27°C° 0 mm 3 mps 742 mmHg 34%
    14:00 +27°C° 0 mm 3 mps 742 mmHg 34%
    15:00 +27°C° 0 mm 2 mps 741 mmHg 34%
    16:00 +28°C° 0 mm 2 mps 741 mmHg 34%
    17:00 +26°C° 0 mm 2 mps 741 mmHg 39%
    18:00 +24°C° 0 mm 2 mps 741 mmHg 44%
    19:00 +21°C° 0 mm 2 mps 741 mmHg 49%
    20:00 +21°C° 0 mm 2 mps 741 mmHg 54%
    21:00 +20°C° 0 mm 2 mps 741 mmHg 59%
    22:00 +19°C° 0 mm 3 mps 741 mmHg 63%
    23:00 +18°C° 0 mm 3 mps 741 mmHg 68%

    23 August, Thursday

    Time Temperature Precipitation Wind Pressure Humidity
    00:00 +18°C° 0 mm 2 mps 740 mmHg 73%
    01:00 +17°C° 0 mm 2 mps 740 mmHg 77%
    02:00 +17°C° 0 mm 2 mps 740 mmHg 80%
    03:00 +16°C° 0 mm 2 mps 740 mmHg 82%
    04:00 +16°C° 0 mm 2 mps 740 mmHg 85%
    05:00 +17°C° 0 mm 2 mps 740 mmHg 80%
    06:00 +18°C° 0 mm 2 mps 740 mmHg 76%
    07:00 +19°C° 0 mm 2 mps 740 mmHg 71%
    08:00 +21°C° 0 mm 2 mps 739 mmHg 62%
    09:00 +25°C° 0 mm 1 mps 739 mmHg 53%
    10:00 +27°C° 0 mm 1 mps 739 mmHg 44%
    11:00 +28°C° 0 mm 1 mps 739 mmHg 40%
    12:00 +29°C° 0 mm 1 mps 739 mmHg 35%
    13:00 +29°C° 0 mm 0 mps 738 mmHg 31%
    14:00 +29°C° 0 mm 0 mps 738 mmHg 31%
    15:00 +29°C° 0 mm 0 mps 738 mmHg 30%
    16:00 +29°C° 0 mm 0 mps 738 mmHg 30%
    17:00 +29°C° 0 mm 1 mps 737 mmHg 33%
    18:00 +27°C° 0 mm 1 mps 737 mmHg 37%
    19:00 +25°C° 0 mm 1 mps 737 mmHg 41%
    20:00 +24°C° 0 mm 1 mps 737 mmHg 43%
    21:00 +24°C° 0 mm 2 mps 737 mmHg 44%
    22:00 +23°C° 0 mm 2 mps 737 mmHg 46%
    23:00 +23°C° 0 mm 2 mps 737 mmHg 48%

    24 August, Friday

    Time Temperature Precipitation Wind Pressure Humidity
    00:00 +21°C° 0 mm 2 mps 736 mmHg 50%
    01:00 +21°C° 0 mm 2 mps 736 mmHg 52%
    02:00 +20°C° 0 mm 2 mps 736 mmHg 55%
    03:00 +20°C° 0 mm 2 mps 735 mmHg 57%
    04:00 +20°C° 0 mm 2 mps 735 mmHg 60%
    05:00 +21°C° 0 mm 2 mps 735 mmHg 59%
    06:00 +22°C° 0 mm 3 mps 735 mmHg 57%
    07:00 +24°C° 0 mm 3 mps 735 mmHg 56%
    08:00 +26°C° 0 mm 3 mps 735 mmHg 50%
    09:00 +28°C° 0 mm 4 mps 734 mmHg 45%
    10:00 +30°C° 0 mm 4 mps 734 mmHg 39%
    11:00 +32°C° 0 mm 4 mps 734 mmHg 37%
    12:00 +33°C° 0 mm 5 mps 734 mmHg 35%
    13:00 +34°C° 0 mm 5 mps 733 mmHg 33%
    14:00 +34°C° 0 mm 5 mps 733 mmHg 35%
    15:00 +33°C° 0 mm 5 mps 733 mmHg 36%
    16:00 +33°C° 0 mm 5 mps 732 mmHg 38%
    17:00 +30°C° 0 mm 4 mps 732 mmHg 44%
    18:00 +28°C° 0 mm 3 mps 732 mmHg 50%
    19:00 +26°C° 0 mm 2 mps 732 mmHg 56%
    20:00 +25°C° 0.3 mm 2 mps 732 mmHg 60%
    21:00 +25°C° 0.3 mm 2 mps 732 mmHg 64%
    22:00 +24°C° 0.3 mm 2 mps 732 mmHg 68%
    23:00 +23°C° 0.5 mm 1 mps 732 mmHg 71%
    Show more